This demonstration page uses our WeatherBlox Daily Observations layout. Learn more.

Left ArrowRight Arrow

41.12389, -100.76542

Hourly Observations for February 7, 2017

Temp ( °F °C ) Dew Point ( °F °C ) Humidity (%) Winds ( mph kmh ) Pressure ( in mb ) Visibility ( mi km ) Precip ( " mm )
12:53 am 00:53 Clear 29 -1.7 25 -3.9 85 85 Calm 29.57 1002 10 16 0.00 0.00
1:53 am 01:53 Clear 25 -3.9 22 -5.6 88 88 NNW 3 6 29.59 1002 10 16 0.00 0.00
2:53 am 02:53 Clear 24 -4.4 21 -6.1 88 88 NW 5 7 29.61 1003 10 16 0.00 0.00
3:53 am 03:53 Clear 27 -2.8 24 -4.4 89 89 Calm 29.60 1003 10 16 0.00 0.00
4:53 am 04:53 Clear 25 -3.9 23 -5 92 92 Calm 29.63 1003 10 16 0.00 0.00
5:53 am 05:53 Clear 24 -4.4 22 -5.6 91 91 Calm 29.65 1004 10 16 0.00 0.00
6:53 am 06:53 Clear 26 -3.3 22 -5.6 84 84 undefined N/A 29.70 1006 10 16 0.00 0.00
7:20 am 07:20 Partly Cloudy 25 -4 21 -6 86 86 N 10 17 29.83 1010 9 14 0.00 0.00
7:31 am 07:31 Mostly Cloudy 26 -3.3 23 -5 88 88 N 13 20 29.83 1010 7 11 0.00 0.00
7:53 am 07:53 Cloudy 25 -3.9 22 -5.6 88 88 N 14 22 29.78 1009 7 11 0.00 0.00
8:10 am 08:10 Cloudy with Mist and Fog 23 -5 21 -6.1 92 92 N 18 30 29.85 1011 6 10 0.00 0.00
8:53 am 08:53 Cloudy 21 -6.1 17 -8.3 85 85 N 16 26 29.85 1011 9 14 0.00 0.00
9:34 am 09:34 Cloudy 21 -6 18 -8 86 86 N 16 26 29.97 1015 10 16 0.00 0.00
9:53 am 09:53 Mostly Cloudy 22 -5.6 16 -8.9 78 78 N 10 17 29.88 1012 10 16 0.00 0.00
10:07 am 10:07 Mostly Sunny 23 -5 16 -8.9 74 74 NNW 15 24 29.97 1015 10 16 0.00 0.00
10:53 am 10:53 Sunny 26 -3.3 17 -8.3 69 69 N 15 24 29.89 1012 10 16 0.00 0.00
11:53 am 11:53 Sunny 28 -2.2 15 -9.4 58 58 N 15 24 29.89 1012 10 16 0.00 0.00
12:53 pm 12:53 Sunny 30 -1.1 15 -9.4 54 54 NNE 12 19 29.87 1011 10 16 0.00 0.00
1:53 pm 13:53 Sunny 28 -2.2 13 -10.6 53 53 N 14 22 29.86 1011 10 16 0.00 0.00
2:53 pm 14:53 Sunny 28 -2.2 12 -11.1 51 51 N 12 19 29.85 1011 10 16 0.00 0.00
3:53 pm 15:53 Sunny 28 -2.2 12 -11.1 51 51 NNE 10 17 29.85 1011 10 16 0.00 0.00
4:53 pm 16:53 Mostly Sunny 25 -3.9 12 -11.1 58 58 NNE 14 22 29.86 1011 10 16 0.00 0.00
5:53 pm 17:53 Cloudy 24 -4.4 11 -11.7 57 57 NE 12 19 29.87 1011 10 16 0.00 0.00
6:53 pm 18:53 Cloudy 23 -5 11 -11.7 60 60 NE 15 24 29.87 1012 10 16 0.00 0.00
7:53 pm 19:53 Cloudy with Light Snow 22 -5.6 11 -11.7 63 63 E 10 17 29.85 1011 10 16 0.00 0.03
8:53 pm 20:53 Cloudy with Light Snow 21 -6.1 11 -11.7 65 65 N 8 13 29.94 1014 10 16 0.00 0.03
9:53 pm 21:53 Cloudy with Light Snow 20 -6.7 12 -11.1 71 71 NNE 7 11 29.96 1014 10 16 0.01 0.25
10:53 pm 22:53 Cloudy 20 -6.7 11 -11.7 68 68 NNE 8 13 29.93 1014 10 16 0.00 0.03
11:53 pm 23:53 Cloudy 20 -6.7 12 -11.1 71 71 ENE 7 11 29.93 1013 10 16 0.00 0.00

Powered by AerisWeather